Location: Unspecified
(0.0000°N, 1.0000°E)
Time: 18:24:36
(UTC+02:00)

Amateur Radio Satellites - All Passes

Search period start: 16 April 2014 17:54
Search period end: 17 April 2014 17:54
Location: Unspecified, 0.0000°N, 1.0000°E

Satellite Date Start Highest point End Downlink Frequencies (MHz)
Time Altitude Azimuth
AO-7 16 Apr 18:00:15 18:08:34 76° 74° (ENE) 18:16:48 29.400 - 29.500 MHz
JAS-1B 16 Apr 18:11:24 18:20:37 49° 255° (WSW) 18:28:49 435.800 - 435.900 CW/SSB
TMSAT-1 16 Apr 18:15:15 18:16:23 11° 257° (WSW) 18:17:30 436.925 FM
RS-15 16 Apr 18:57:10 19:08:09 60° 70° (ENE) 19:19:37 29.354 - 29.394 USB, Beacon 29.352 USB
UOSAT-12 16 Apr 19:11:04 19:14:10 19° 293° (WNW) 19:17:19 437.025 FM, 437.400 FM
Hamsat 16 Apr 19:11:13 19:14:24 21° 79° (ENE) 19:17:34 145.90 MHz
STRAND 1 16 Apr 19:16:02 19:18:39 14° 103° (ESE) 19:21:16 ?
PANSAT 16 Apr 19:31:58 19:35:45 60° 210° (SSW) 19:39:34 not established
AO-7 16 Apr 19:57:54 20:00:52 12° 252° (WSW) 20:03:50 29.400 - 29.500 MHz
JAS-2 16 Apr 20:08:40 20:15:05 39° 79° (E) 20:20:46 435.800 - 435.900 CW/SSB, 435.910 FM
Hamsat 16 Apr 20:47:55 20:50:07 14° 258° (WSW) 20:52:19 145.90 MHz
STRAND 1 16 Apr 20:53:01 20:57:33 33° 283° (WNW) 21:02:08 ?
RS-15 16 Apr 21:11:59 21:20:17 23° 247° (WSW) 21:28:56 29.354 - 29.394 USB, Beacon 29.352 USB
SO-67 16 Apr 21:17:37 21:20:45 31° 259° (W) 21:23:53 435.3500 MHz FM
MaSat-1 16 Apr 21:23:29 21:25:39 14° 112° (ESE) 21:27:38 437.345 MHz
JAS-2 16 Apr 21:54:46 21:59:40 20° 254° (WSW) 22:04:13 435.800 - 435.900 CW/SSB, 435.910 FM
HO-68 16 Apr 22:16:24 22:23:06 44° 75° (ENE) 22:29:45 435.675 MHz FM
MaSat-1 16 Apr 23:01:00 23:04:01 19° 283° (WNW) 23:06:40 437.345 MHz
Saudisat 1A 16 Apr 23:22:43 23:26:55 49° 68° (ENE) 23:31:07 436.775 MHz
FUNcube-1 16 Apr 23:27:55 23:31:14 21° 79° (E) 23:34:29 145.950 - 145.970 MHz USB
Oscar 11 16 Apr 23:46:40 23:50:45 42° 258° (WSW) 23:54:48 145.825 FM, Beacon 2401.500 USB
AO-40 16 Apr 23:49:42 23:55:12 51° 9° (N) 00:05:55 Beacon 2401.320
PCSat 17 Apr 00:02:59 00:04:50 12° 110° (ESE) 00:06:40 145.825 MHz
HO-68 17 Apr 00:05:34 00:10:27 20° 255° (WSW) 00:15:21 435.675 MHz FM
Sapphire 17 Apr 00:57:38 01:02:52 50° 109° (ESE) 01:08:04 437.095 MHz 1200 baud AX-25 AFSK
FUNcube-1 17 Apr 01:04:43 01:07:23 16° 257° (WSW) 01:10:01 145.950 - 145.970 MHz USB
PCSat 17 Apr 01:42:54 01:48:00 44° 289° (WNW) 01:53:06 145.825 MHz
KITSAT 1 17 Apr 01:51:17 01:54:26 13° 112° (ESE) 01:57:33 435.175 FM
Oscar 16 17 Apr 02:01:39 02:02:12 10° 103° (ESE) 02:02:45 437.025 USB, Beacon 2401.1428
ISS 17 Apr 02:14:45 02:16:49 15° 54° (NE) 02:18:54 145.800 FM
SO-50 17 Apr 03:02:03 03:04:22 13° 68° (ENE) 03:06:40 436.795 FM
AO-27 17 Apr 03:05:41 03:10:08 30° 103° (ESE) 03:14:36 436.795 MHz FM
ITAMSAT 1 17 Apr 03:16:51 03:21:39 40° 103° (ESE) 03:26:29 435.822 SSB
Oscar 19 17 Apr 03:28:25 03:33:33 64° 282° (WNW) 03:38:41 437.125 CW, 437.150 USB
OPAL 17 Apr 03:35:35 03:39:37 25° 76° (ENE) 03:43:38 ?
Oscar 16 17 Apr 03:36:18 03:41:15 46° 282° (WNW) 03:46:13 437.025 USB, Beacon 2401.1428
KITSAT 1 17 Apr 03:41:32 03:49:36 73° 290° (WNW) 03:57:40 435.175 FM
ISS 17 Apr 03:51:11 03:53:22 16° 234° (SW) 03:55:34 145.800 FM
AO-Echo 17 Apr 03:54:54 03:59:35 89° 104° (ESE) 04:04:18 ?
Uribyol 2 17 Apr 04:05:52 04:10:49 47° 283° (WNW) 04:15:48 436.500 FM
Gurwin Techsat 1B 17 Apr 04:19:38 04:24:45 51° 102° (ESE) 04:29:54 435.225 FM
JAS-1B 17 Apr 04:32:59 04:37:20 20° 107° (ESE) 04:42:06 435.800 - 435.900 CW/SSB
AO-7 17 Apr 04:38:34 04:42:30 14° 107° (ESE) 04:46:25 29.400 - 29.500 MHz
SO-50 17 Apr 04:40:28 04:44:41 32° 248° (WSW) 04:48:57 436.795 FM
AO-27 17 Apr 04:46:10 04:49:23 17° 283° (WNW) 04:52:37 436.795 MHz FM
ITAMSAT 1 17 Apr 04:58:56 05:00:53 12° 283° (WNW) 05:02:50 435.822 SSB
TMSAT-1 17 Apr 05:09:41 05:14:53 61° 282° (WNW) 05:20:06 436.925 FM
OPAL 17 Apr 05:14:53 05:18:14 18° 256° (WSW) 05:21:36 ?
PANSAT 17 Apr 05:40:29 05:43:25 20° 151° (SSE) 05:46:19 not established
UOSAT-12 17 Apr 05:40:31 05:44:45 35° 68° (ENE) 05:48:56 437.025 FM, 437.400 FM
Uosat F 17 Apr 05:49:08 05:54:05 69° 283° (WNW) 05:59:04 435.120 FM
JAS-1B 17 Apr 06:22:27 06:27:36 32° 281° (W) 06:33:25 435.800 - 435.900 CW/SSB
AO-7 17 Apr 06:26:34 06:34:49 70° 286° (WNW) 06:43:08 29.400 - 29.500 MHz
RS-15 17 Apr 06:39:57 06:51:24 52° 111° (ESE) 07:02:15 29.354 - 29.394 USB, Beacon 29.352 USB
Hamsat 17 Apr 07:18:05 07:21:50 28° 102° (ESE) 07:25:36 145.90 MHz
PANSAT 17 Apr 07:19:47 07:23:36 57° 330° (NNW) 07:27:25 not established
UOSAT-12 17 Apr 07:23:19 07:24:39 11° 248° (WSW) 07:25:58 437.025 FM, 437.400 FM
JAS-2 17 Apr 07:41:28 07:45:37 19° 106° (ESE) 07:50:05 435.800 - 435.900 CW/SSB, 435.910 FM
STRAND 1 17 Apr 07:46:50 07:51:32 36° 77° (ENE) 07:56:11 ?
RS-15 17 Apr 08:53:59 09:03:18 28° 291° (WNW) 09:12:23 29.354 - 29.394 USB, Beacon 29.352 USB
Hamsat 17 Apr 08:56:00 08:57:33 12° 282° (WNW) 08:59:06 145.90 MHz
SO-67 17 Apr 09:02:52 09:06:17 58° 281° (W) 09:09:44 435.3500 MHz FM
MaSat-1 17 Apr 09:23:23 09:26:08 18° 77° (ENE) 09:29:14 437.345 MHz
JAS-2 17 Apr 09:24:48 09:30:14 38° 281° (W) 09:36:20 435.800 - 435.900 CW/SSB, 435.910 FM
STRAND 1 17 Apr 09:28:02 09:30:26 13° 257° (WSW) 09:32:49 ?
HO-68 17 Apr 10:08:09 10:14:36 37° 105° (ESE) 10:21:04 435.675 MHz FM
Oscar 11 17 Apr 10:23:18 10:24:03 10° 102° (ESE) 10:24:48 145.825 FM, Beacon 2401.500 USB
MaSat-1 17 Apr 11:01:27 11:04:25 19° 249° (WSW) 11:07:45 437.345 MHz
Saudisat 1A 17 Apr 11:28:47 11:33:14 81° 112° (ESE) 11:37:41 436.775 MHz
FUNcube-1 17 Apr 11:38:00 11:41:50 30° 102° (ESE) 11:45:45 145.950 - 145.970 MHz USB
Oscar 11 17 Apr 11:56:07 11:59:58 31° 282° (WNW) 12:03:51 145.825 FM, Beacon 2401.500 USB
HO-68 17 Apr 11:56:27 12:01:58 24° 285° (WNW) 12:07:32 435.675 MHz FM
PCSat 17 Apr 12:36:14 12:41:11 37° 71° (ENE) 12:46:08 145.825 MHz
FUNcube-1 17 Apr 13:16:39 13:18:01 11° 281° (W) 13:19:24 145.950 - 145.970 MHz USB
Sapphire 17 Apr 13:34:00 13:39:13 51° 251° (WSW) 13:44:26 437.095 MHz 1200 baud AX-25 AFSK
ISS 17 Apr 13:52:09 13:52:44 10° 126° (SE) 13:53:18 145.800 FM
KITSAT 1 17 Apr 13:57:35 14:02:31 17° 69° (ENE) 14:07:25 435.175 FM
PCSat 17 Apr 14:21:37 14:24:20 14° 250° (WSW) 14:27:05 145.825 MHz
Oscar 19 17 Apr 14:24:39 14:28:20 20° 77° (ENE) 14:32:00 437.125 CW, 437.150 USB
Oscar 16 17 Apr 14:31:50 14:36:08 27° 77° (ENE) 14:40:25 437.025 USB, Beacon 2401.1428
AO-Echo 17 Apr 14:48:07 14:50:30 13° 77° (ENE) 14:52:52 ?
Uribyol 2 17 Apr 15:02:18 15:06:43 28° 77° (ENE) 15:11:04 436.500 FM
SO-50 17 Apr 15:14:25 15:18:01 23° 112° (ESE) 15:21:35 436.795 FM
ISS 17 Apr 15:26:32 15:29:17 24° 306° (NW) 15:32:02 145.800 FM
AO-27 17 Apr 15:40:18 15:45:32 81° 77° (ENE) 15:50:44 436.795 MHz FM
KITSAT 1 17 Apr 15:49:48 15:57:37 56° 250° (WSW) 16:05:27 435.175 FM
ITAMSAT 1 17 Apr 15:51:42 15:56:55 76° 257° (WSW) 16:02:05 435.822 SSB
Oscar 19 17 Apr 16:03:21 16:07:24 24° 257° (WSW) 16:11:28 437.125 CW, 437.150 USB
OPAL 17 Apr 16:06:18 16:11:27 64° 104° (ESE) 16:16:34 ?
TMSAT-1 17 Apr 16:09:16 16:13:30 24° 77° (ENE) 16:17:43 436.925 FM
Oscar 16 17 Apr 16:11:53 16:15:13 18° 257° (WSW) 16:18:33 437.025 USB, Beacon 2401.1428
AO-Echo 17 Apr 16:24:02 16:28:59 40° 258° (WSW) 16:33:55 ?
JAS-1B 17 Apr 16:40:58 16:49:29 38° 78° (ENE) 16:57:00 435.800 - 435.900 CW/SSB
Uosat F 17 Apr 16:42:23 16:45:27 16° 77° (ENE) 16:48:30 435.120 FM
Uribyol 2 17 Apr 16:42:31 16:45:54 18° 257° (WSW) 16:49:17 436.500 FM
SO-50 17 Apr 16:55:34 16:58:19 16° 292° (WNW) 17:01:04 436.795 FM
Gurwin Techsat 1B 17 Apr 16:58:14 17:03:24 54° 258° (WSW) 17:08:34 435.225 FM
AO-7 17 Apr 17:02:29 17:08:55 25° 74° (ENE) 17:15:17 29.400 - 29.500 MHz
PANSAT 17 Apr 17:28:15 17:31:11 21° 29° (NNE) 17:34:07 not established
